Tracking 19969 objects as of 13-Nov-2019
Live streaming from Space Station
objects crossing your sky now
Track the group of recently launched Starlink satellites

ARIANE 2 DEB

Track ARIANE 2 DEB now!


NORAD ID: 33548
Int'l Code: 1989-006AQ
Perigee: 1,178.9 km
Apogee: 35,666.2 km
Inclination: 10.1 °
Period: 647.5 minutes
Semi major axis: 24793 km
RCS: 0.2055 m2 (medium)
Launch date: January 27, 1989
Source: France (FR)
Launch site: FRENCH GUIANA (FRGUI)

Note: This is SATELLITE DEBRIS
aabbcc
Your satellite tracking list
Your tracking list is empty




NASA's NSSDC Master Catalog

Two Line Element Set (TLE):
1 33548U 89006AQ  19316.40635467 -.00000163 +00000-0 +00000-0 0  9992
2 33548 010.0779 038.4725 6954898 187.2441 151.1276 02.22379530114387
Source of the keplerian elements: AFSPC